This is the latest recevied weather packets stored in our database for station/object DG1ROH. If no packets are shown the sender has not sent any weather packets the latest 1 day(s).
| Time | Temp. | Humidity | Pressure | Rain* | Wind** | Luminosity | Snow |
|---|---|---|---|---|---|---|---|
| 1778041532 | 9.44° C | 94% | 1004.9 hPa | 3.81 mm | - | 0 W/m² | - |
| 1778041410 | 9.44° C | 94% | 1004.9 hPa | 3.81 mm | - | 0 W/m² | - |
| 1778041289 | 9.44° C | 94% | 1004.9 hPa | 4.06 mm | - | 0 W/m² | - |
| 1778041170 | 9.44° C | 94% | 1004.9 hPa | 4.32 mm | - | 0 W/m² | - |
| 1778041050 | 9.44° C | 94% | 1004.9 hPa | 4.32 mm | - | 0 W/m² | - |
| 1778040930 | 9.44° C | 94% | 1004.9 hPa | 4.57 mm | - | 0 W/m² | - |
| 1778040690 | 9.44° C | 94% | 1004.9 hPa | 4.83 mm | - | 0 W/m² | - |
| 1778040449 | 9.44° C | 94% | 1004.9 hPa | 5.08 mm | - | 0 W/m² | - |
| 1778039973 | 9.44° C | 94% | 1005 hPa | 5.33 mm | - | 0 W/m² | - |
| 1778039854 | 9.44° C | 94% | 1004.9 hPa | 5.08 mm | - | 0 W/m² | - |
| 1778039729 | 9.44° C | 94% | 1005 hPa | 5.08 mm | - | 0 W/m² | - |
| 1778039490 | 9.44° C | 94% | 1004.9 hPa | 5.08 mm | - | 0 W/m² | - |
| 1778039369 | 9.44° C | 94% | 1004.9 hPa | 5.08 mm | - | 0 W/m² | - |
| 1778039248 | 9.44° C | 94% | 1005 hPa | 5.08 mm | - | 0 W/m² | - |
| 1778039006 | 9.44° C | 94% | 1005.1 hPa | 5.08 mm | - | 0 W/m² | - |
| 1778038886 | 9.44° C | 94% | 1005.1 hPa | 5.08 mm | - | 0 W/m² | - |
| 1778038644 | 9.44° C | 94% | 1005.1 hPa | 5.08 mm | - | 0 W/m² | - |
| 1778038524 | 9.44° C | 93% | 1005.2 hPa | 5.08 mm | - | 0 W/m² | - |
| 1778038284 | 9.44° C | 93% | 1005.3 hPa | 5.08 mm | - | 0 W/m² | - |
| 1778038163 | 9.44° C | 93% | 1005.2 hPa | 4.83 mm | - | 0 W/m² | - |
| 1778037924 | 9.44° C | 93% | 1005.4 hPa | 4.83 mm | - | 0 W/m² | - |
| 1778037800 | 9.44° C | 93% | 1005.3 hPa | 4.83 mm | - | 0 W/m² | - |
| 1778037560 | 9.44° C | 93% | 1005.3 hPa | 4.57 mm | - | 0 W/m² | - |
| 1778037439 | 9.44° C | 93% | 1005.5 hPa | 4.57 mm | - | 0 W/m² | - |
| 1778037320 | 9.44° C | 93% | 1005.5 hPa | 4.32 mm | - | 0 W/m² | - |
* Rain latest hour (hover to see other rain measurements)
** Current wind speed in m/s (hover to see current wind gust speed)